Regional Weather Roundup
Issued by NWS Cleveland, OH

Home | Current Version | Previous Version | Graphics & Text | Print | Product List | Glossary On
Versions: 1 2 3 4 5 6 7 8 9 10 11 12 13 14 15 16 17 18 19 20 21 22 23 24 25 26 27 28 29 30 31 32 33 34 35 36 37 38 39 40 41 42 43 44 45 46 47 48 49 50
000
ASUS41 KCLE 040612
RWRCLE
OHIO REGIONAL WEATHER ROUNDUP
NATIONAL WEATHER SERVICE WILMINGTON, OH
200 AM EDT WED MAY 04 2016

NOTE: "FAIR" INDICATES FEW OR NO CLOUDS BELOW 12,000 FEET WITH NO
SIGNIFICANT WEATHER AND/OR OBSTRUCTIONS TO VISIBILITY.

OHZ001>008-015>018-024>027-034-035-043-044-040700-
   NORTHWEST OHIO

CITY           SKY/WX    TMP DP  RH WIND       PRES   REMARKS
DEFIANCE       MOCLDY    50  43  77 S6        29.74F
FINDLAY        FAIR      48  41  76 S7        29.75F
TOLEDO EXPRESS FAIR      50  43  77 S8        29.73F
TOLEDO EXEC    FAIR      50  43  77 S8        29.75F
LIMA           MOCLDY    48  45  89 S9        29.76F
$$

OHZ009>014-019>023-028>033-038-089-040700-
   NORTHEAST OHIO

CITY           SKY/WX    TMP DP  RH WIND       PRES   REMARKS
CLE-HOPKINS    FAIR      46  39  76 S5        29.78F
CLE-LAKEFRONT  FAIR      50  38  63 S9        29.75F
CUY CO. ARPT   NOT AVBL
LORAIN-ELYRIA  FAIR      46  40  79 SW5       29.77F
ASHTABULA      FAIR      40  37  89 CALM      29.78F
AKRON-CANTON   MOCLDY    50  39  66 CALM      29.78F
WOOSTER        FAIR      44  42  93 CALM      29.78F
MANSFIELD      FAIR      46  42  86 S6        29.78F
YOUNGSTOWN     FAIR      41  38  89 CALM      29.77F
$$

OHZ042-051>053-060>062-070>072-077>081-040700-
  SOUTHWEST OHIO

CITY           SKY/WX    TMP DP  RH WIND       PRES   REMARKS
CINC-COVINGTON FAIR      48  47  96 CALM      29.82F
CINC-LUNKEN    FAIR      49  49 100 CALM      29.83F
HAMILTON       FAIR      46  45  96 CALM      29.83F
DAYTON         FAIR      48  45  89 SW8       29.80F
WRIGHT-PAT AFB FAIR      47  47 100 CALM      29.80F
DAYTON GENERAL FAIR      48  43  82 CALM      29.80F
WILMINGTON     FAIR      48  46  93 SW7       29.81F
$$

OHZ036-037-039>041-045>050-054>059-063>069-073>076-082>088-040700-
  CENTRAL AND SOUTHEAST OHIO

CITY           SKY/WX    TMP DP  RH WIND       PRES   REMARKS
COLUMBUS       MOCLDY    50  46  86 CALM      29.79F
OSU AIRPORT    FAIR      49  46  90 W5        29.78F
BOLTON FIELD   MOCLDY    48  48  98 CALM      29.80F
RICKENBACK AFB CLOUDY    49  47  93 CALM      29.79F
NEWARK         CLOUDY    50  47  89 CALM      29.78F
MARION         FAIR      46  41  82 S5        29.78F
LANCASTER      FAIR      48  46  93 CALM      29.80F
ZANESVILLE     CLOUDY    53  49  86 SW3       29.78F
NEW PHILLY     CLOUDY    50  46  86 CALM      29.79F
$$



USA.gov is the U.S. government's official web portal to all federal, state and local government web resources and services.